Flag for U.S.A. Weather past 2 weeks in Wake Island, Wake Island, U.S.A.

Now
76 °F

Fog.


Feels Like: 77 °F
Forecast: 78 / 85 °F
Wind: 16 mph from East

Location: Wake Island Airfld

Current Time: May 6, 2015 at 7:19:40 AM

Latest Report: May 6, 2015 at 5:58 AM


Visibility: 6 mi

Pressure: 29.93 "Hg

Humidity: 91%

Dew point: 74 °F

Location of Wake IslandLocation

Historic Weather in Wake Island — Graph

°F

Wake Island temperature yesterday

Maximum temperature yesterday: 84 °F (at 12:58 PM)
Minimum temperature yesterday: 76 °F (at 2:58 AM)
Average temperature yesterday: 80 °F

Past Weeks' High & Low Weather Summary

 TemperatureHumidityPressure
High85 °F (May 2, 2:58 PM)96% (Apr 23, 1:58 AM)30.06 "Hg (Apr 23, 1:58 AM)
Low72 °F (Apr 26, 6:58 AM)51% (Apr 24, 1:58 PM)29.86 "Hg (May 5, 4:58 PM)
Average79 °F76%29.98 "Hg
* Reported Apr 21 5:58 AM — May 6 5:58 AM, Wake Island, Weather by CustomWeather, © 2015

Note: Actual official high and low records may vary slightly from our data, if they occured in-between our weather recording intervals... More about our weather records

Advertising

Wake Island weather history for previous 24 hours

 ConditionsComfort  
Time TempWeatherWind HumidityBarometerVisibility
5:58 AM
Wed, May 6
76 °FFog.16 mph91%29.93 "Hg6 mi
5:03 AM73 °FLight rain. Fog.9 mph94%29.91 "Hg4 mi
4:58 AM75 °FLight rain. Fog.12 mph93%29.93 "Hg4 mi
3:58 AM78 °FOvercast.15 mph81%29.92 "HgN/A
2:58 AM78 °FPassing clouds.13 mph83%29.92 "HgN/A
1:58 AM77 °FPassing clouds.12 mph82%29.93 "HgN/A
12:58 AM78 °FClear.15 mph79%29.94 "HgN/A
11:58 PM
Tue, May 5
78 °FPartly cloudy.17 mph78%29.95 "HgN/A
10:58 PM78 °FPassing clouds.15 mph76%29.95 "HgN/A
9:58 PM78 °FPassing clouds.18 mph73%29.94 "HgN/A
8:58 PM78 °FPassing clouds.17 mph73%29.92 "HgN/A
7:58 PM79 °FSunny.16 mph72%29.90 "HgN/A
6:58 PM80 °FHaze.14 mph74%29.88 "Hg6 mi
5:58 PM81 °FScattered clouds.13 mph72%29.86 "HgN/A
4:58 PM82 °FScattered clouds.16 mph69%29.86 "HgN/A
3:58 PM84 °FScattered clouds.17 mph69%29.87 "HgN/A
2:58 PM84 °FPassing clouds.16 mph69%29.88 "HgN/A
1:58 PM83 °FScattered clouds.17 mph68%29.90 "HgN/A
12:58 PM84 °FBroken clouds.16 mph66%29.92 "HgN/A
11:58 AM83 °FSunny.17 mph69%29.93 "HgN/A
10:58 AM83 °FSunny.16 mph68%29.94 "HgN/A
9:58 AM81 °FSunny.16 mph73%29.95 "HgN/A
8:58 AM81 °FPassing clouds.15 mph74%29.95 "HgN/A
7:58 AM79 °FPassing clouds.14 mph79%29.94 "HgN/A
Weather by CustomWeather, © 2015

See weather overviewHow to use our weather pages